Date String (YYYY-MM-DD hh:mm:ss) UTC,Instrument flags,Ambient pressure (hPa),Sample flow (lpm),Bypass flow (lpm),Sample temperature (°C),Ambient temperature (°C),ASC tube jacket temperature (°C),LED temperature (°C),Box temperature (°C),Sample RH (%),Span deviation,Mass concentration (μg/m³),Mass concentration (μg/m³),Mass concentration (μg/m³)
DateTimeUTC,F1_M11,P_M11,Q1_M11,Q2_M11,T1_M11,T2_M11,T3_M11,T4_M11,T5_M11,U1_M11,ZSPAN_M11,X0_M11,X2_M11,X1_M11
2022-04-05 00:00:00,,0811.1,5.01,0.00,27.9,27.2,00.0,36.8,29.7,05.7,0000.0,0012.20,0003.97,0001.91
2022-04-05 00:01:00,,0811.1,4.99,0.00,27.9,27.2,00.0,36.8,29.7,05.6,0000.0,0012.24,0003.99,0001.87
2022-04-05 00:02:00,,0811.2,5.01,0.00,27.9,27.2,00.0,36.8,29.7,05.7,0000.0,0012.17,0003.93,0001.87
2022-04-05 00:03:00,,0811.2,5.00,0.00,27.9,27.2,00.0,36.8,29.7,05.9,0000.0,0011.91,0003.88,0001.86
2022-04-05 00:04:00,,0811.2,4.98,0.00,27.9,27.2,00.0,36.8,29.7,05.9,0000.0,0011.51,0003.87,0001.87
2022-04-05 00:05:00,,0811.3,5.01,0.00,27.9,27.2,00.0,36.8,29.8,06.0,0000.0,0011.48,0003.83,0001.86
2022-04-05 00:06:00,,0811.4,4.99,0.00,28.0,27.2,00.0,36.9,29.8,06.0,0000.0,0011.82,0003.82,0001.88
2022-04-05 00:07:00,,0811.3,5.01,0.00,28.0,27.2,00.0,36.9,29.8,06.0,0000.0,0013.43,0003.85,0001.89
2022-04-05 00:08:00,,0811.4,5.00,0.00,28.0,27.3,00.0,36.9,29.8,06.2,0000.0,0012.87,0003.88,0001.90
2022-04-05 00:09:00,,0811.2,4.99,0.00,28.0,27.3,00.0,36.9,29.9,06.0,0000.0,0012.48,0003.94,0001.91
2022-04-05 00:10:00,,0811.2,5.02,0.00,28.0,27.3,00.0,36.9,29.9,05.9,0000.0,0011.95,0003.90,0001.89
2022-04-05 00:11:00,,0811.1,4.99,0.00,28.0,27.3,00.0,36.9,29.9,05.9,0000.0,0011.78,0003.86,0001.89
2022-04-05 00:12:00,,0811.3,4.99,0.00,28.0,27.3,00.0,36.9,29.9,06.0,0000.0,0011.68,0003.84,0001.91
2022-04-05 00:13:00,,0811.3,5.02,0.00,28.1,27.3,00.0,36.9,29.9,06.0,0000.0,0011.67,0003.86,0001.91
2022-04-05 00:14:00,,0811.3,5.00,0.00,28.1,27.3,00.0,36.9,29.9,06.1,0000.0,0011.67,0003.88,0001.91
2022-04-05 00:15:00,,0811.3,4.99,0.00,28.0,27.3,00.0,36.9,29.8,06.1,0000.0,0011.78,0003.88,0001.91
2022-04-05 00:16:00,,0811.4,5.01,0.00,28.0,27.3,00.0,36.9,29.8,06.1,0000.0,0011.37,0003.92,0001.91
2022-04-05 00:17:00,,0811.4,5.00,0.00,28.0,27.3,00.0,36.9,29.8,06.2,0000.0,0012.15,0003.99,0001.89
2022-04-05 00:18:00,,0811.4,4.99,0.00,28.0,27.2,00.0,36.9,29.8,06.3,0000.0,0010.31,0003.91,0001.87
2022-04-05 00:19:00,,0811.4,5.01,0.00,28.0,27.2,00.0,36.9,29.8,06.3,0000.0,0010.15,0003.90,0001.86
2022-04-05 00:20:00,,0811.4,4.98,0.00,28.0,27.2,00.0,36.9,29.7,06.3,0000.0,0010.00,0003.86,0001.83
2022-04-05 00:21:00,,0811.4,5.01,0.00,28.0,27.1,00.0,36.9,29.7,06.4,0000.0,0010.02,0003.87,0001.83
2022-04-05 00:22:00,,0811.4,5.00,0.00,27.9,27.1,00.0,36.9,29.7,06.5,0000.0,0010.41,0004.01,0001.85
2022-04-05 00:23:00,,0811.4,5.00,0.00,27.9,27.2,00.0,36.9,29.7,06.4,0000.0,0010.75,0004.06,0001.85
2022-04-05 00:24:00,,0811.3,5.00,0.00,27.9,27.2,00.0,36.9,29.7,06.4,0000.0,0011.11,0004.02,0001.86
2022-04-05 00:25:00,,0811.1,4.99,0.00,27.9,27.1,00.0,36.9,29.7,06.3,0000.0,0010.93,0003.97,0001.84
2022-04-05 00:26:00,,0811.2,5.00,0.00,27.9,27.1,00.0,36.9,29.7,06.2,0000.0,0010.68,0003.92,0001.82
2022-04-05 00:27:00,,0811.4,5.01,0.00,27.9,27.1,00.0,36.9,29.7,06.3,0000.0,0010.54,0003.90,0001.80
2022-04-05 00:28:00,,0811.4,4.98,0.00,27.9,27.2,00.0,36.9,29.7,06.4,0000.0,0009.93,0003.85,0001.82
2022-04-05 00:29:00,,0811.4,4.99,0.00,28.0,27.2,00.0,36.9,29.7,06.5,0000.0,0010.11,0003.91,0001.86
2022-04-05 00:30:00,,0811.5,5.01,0.00,28.0,27.2,00.0,36.9,29.8,06.4,0000.0,0010.57,0003.94,0001.85
2022-04-05 00:31:00,,0811.4,5.00,0.00,28.0,27.2,00.0,36.9,29.7,06.5,0000.0,0011.29,0003.94,0001.85
2022-04-05 00:32:00,,0811.5,4.99,0.00,28.0,27.2,00.0,36.9,29.8,06.5,0000.0,0011.58,0003.96,0001.86
2022-04-05 00:33:00,,0811.3,4.99,0.00,28.0,27.3,00.0,36.9,29.7,06.5,0000.0,0011.47,0003.92,0001.85
2022-04-05 00:34:00,,0811.3,5.01,0.00,28.0,27.2,00.0,36.9,29.7,06.4,0000.0,0011.17,0003.87,0001.83
2022-04-05 00:35:00,,0811.5,4.99,0.00,28.0,27.2,00.0,36.9,29.8,06.7,0000.0,0010.77,0003.90,0001.84
2022-04-05 00:36:00,,0811.4,5.01,0.00,28.0,27.2,00.0,36.9,29.8,06.6,0000.0,0011.16,0003.92,0001.85
2022-04-05 00:37:00,,0811.4,4.99,0.00,28.0,27.2,00.0,36.9,29.8,06.6,0000.0,0011.64,0003.97,0001.88
2022-04-05 00:38:00,,0811.4,5.00,0.00,28.0,27.2,00.0,36.9,29.7,06.3,0000.0,0011.85,0004.03,0001.90
2022-04-05 00:39:00,,0811.2,5.00,0.00,28.0,27.3,00.0,36.9,29.8,06.3,0000.0,0012.32,0004.16,0001.93
2022-04-05 00:40:00,,0811.1,4.98,0.00,28.0,27.3,00.0,36.9,29.8,06.3,0000.0,0012.62,0004.24,0001.91
2022-04-05 00:41:00,,0811.1,5.00,0.00,28.0,27.3,00.0,36.9,29.8,06.3,0000.0,0013.20,0004.35,0001.93
2022-04-05 00:42:00,,0811.2,5.01,0.00,28.0,27.3,00.0,37.0,29.8,06.3,0000.0,0012.74,0004.38,0001.94
2022-04-05 00:43:00,,0811.4,4.99,0.00,28.0,27.3,00.0,37.0,29.8,06.3,0000.0,0012.47,0004.41,0001.94
2022-04-05 00:44:00,,0811.4,4.99,0.00,28.0,27.3,00.0,37.0,29.8,06.3,0000.0,0012.62,0004.37,0001.94
2022-04-05 00:45:00,,0811.4,5.01,0.00,28.0,27.3,00.0,37.0,29.8,06.4,0000.0,0012.73,0004.37,0001.95
2022-04-05 00:46:00,,0811.3,4.99,0.00,28.0,27.3,00.0,37.0,29.8,06.4,0000.0,0012.66,0004.37,0001.96
2022-04-05 00:47:00,,0811.2,4.99,0.00,28.0,27.3,00.0,37.0,29.8,06.3,0000.0,0012.83,0004.36,0001.94
2022-04-05 00:48:00,,0811.2,5.01,0.00,28.1,27.3,00.0,37.0,29.9,06.2,0000.0,0012.95,0004.41,0001.91
2022-04-05 00:49:00,,0811.2,5.01,0.00,28.1,27.3,00.0,37.0,29.8,06.2,0000.0,0012.71,0004.36,0001.88
2022-04-05 00:50:00,,0811.2,5.00,0.00,28.1,27.3,00.0,37.0,29.8,06.2,0000.0,0012.75,0004.26,0001.85
2022-04-05 00:51:00,,0811.0,5.00,0.00,28.1,27.3,00.0,37.0,29.8,06.1,0000.0,0012.10,0004.11,0001.82
2022-04-05 00:52:00,,0811.0,5.00,0.00,28.1,27.3,00.0,37.0,29.8,06.2,0000.0,0011.01,0003.99,0001.80
2022-04-05 00:53:00,,0811.1,4.99,0.00,28.1,27.3,00.0,37.0,29.8,06.2,0000.0,0011.02,0003.92,0001.77
2022-04-05 00:54:00,,0811.2,4.99,0.00,28.1,27.4,00.0,37.0,29.9,06.3,0000.0,0011.03,0003.87,0001.76
2022-04-05 00:55:00,,0811.3,5.02,0.00,28.1,27.4,00.0,37.0,29.9,06.3,0000.0,0010.81,0003.87,0001.75
2022-04-05 00:56:00,,0811.3,5.00,0.00,28.1,27.4,00.0,37.0,29.9,06.3,0000.0,0010.62,0003.85,0001.74
2022-04-05 00:57:00,,0811.2,5.00,0.00,28.1,27.4,00.0,37.0,29.9,06.3,0000.0,0010.76,0003.83,0001.71
2022-04-05 00:58:00,,0811.3,5.00,0.00,28.1,27.4,00.0,37.0,29.9,06.4,0000.0,0010.92,0003.84,0001.73
2022-04-05 00:59:00,,0811.3,5.00,0.00,28.1,27.4,00.0,37.0,29.9,06.5,0000.0,0011.03,0003.82,0001.74
